Flag for Denmark Weather past 2 weeks in Horsens, Denmark

Now
48 °F

Light rain. Passing clouds.


Feels Like: 46 °F
Forecast: 44 / 58 °F
Wind: 6 mph from West

Location: Billund Lufthavn

Current Time: May 23, 2015 at 1:54:45 AM

Latest Report: May 23, 2015 at 1:20 AM


Visibility: N/A

Pressure: 30.12 "Hg

Humidity: 94%

Dew point: 46 °F

Location of HorsensLocation

Historic Weather in Horsens — Graph

°F

Horsens temperature yesterday

Maximum temperature yesterday: 61 °F (at 2:20 PM)
Minimum temperature yesterday: 45 °F (at 2:50 AM)
Average temperature yesterday: 53 °F

Past Weeks' High & Low Weather Summary

 TemperatureHumidityPressure
High68 °F (May 11, 3:20 PM)100% (May 9, 11:50 PM)30.27 "Hg (May 9, 11:50 PM)
Low32 °F (May 8, 6:20 AM)41% (May 8, 6:20 PM)29.45 "Hg (May 19, 12:20 AM)
Average49 °F78%29.95 "Hg
* Reported May 8 12:20 AM — May 23 12:50 AM, Horsens, Weather by CustomWeather, © 2015

Note: Actual official high and low records may vary slightly from our data, if they occured in-between our weather recording intervals... More about our weather records

Advertising

Horsens weather history for previous 24 hours

 ConditionsComfort  
Time TempWeatherWind HumidityBarometerVisibility
12:50 AM
Sat, May 23
48 °FLight rain. Overcast.3 mph94%30.09 "HgN/A
12:20 AM46 °FLight rain. Passing clouds.3 mph100%30.09 "HgN/A
11:50 PM
Fri, May 22
48 °FSprinkles. Fog.12 mph94%30.12 "Hg2 mi
11:20 PM50 °FSprinkles. Passing clouds.13 mph100%30.09 "Hg1 mi
10:50 PM52 °FDrizzle. Fog.12 mph94%30.09 "Hg2 mi
10:20 PM52 °FDrizzle. Fog.15 mph94%30.09 "Hg1 mi
9:50 PM54 °FDrizzle. Partly sunny.14 mph82%30.09 "HgN/A
9:20 PM54 °FBroken clouds.10 mph82%30.07 "HgN/A
8:50 PM54 °FPartly sunny.12 mph77%30.09 "HgN/A
8:20 PM55 °FPartly sunny.12 mph72%30.09 "HgN/A
7:50 PM55 °FOvercast.14 mph67%30.09 "HgN/A
7:20 PM57 °FPartly sunny.14 mph59%30.09 "HgN/A
6:50 PM57 °FBroken clouds.14 mph59%30.09 "HgN/A
6:20 PM59 °FPassing clouds.18 mph55%30.09 "HgN/A
5:50 PM59 °FPassing clouds.16 mph59%30.09 "HgN/A
5:20 PM61 °FRefreshingly cool.16 mph52%30.12 "HgN/A
4:50 PM61 °FPassing clouds.16 mph52%30.12 "HgN/A
4:20 PM61 °FPartly sunny.17 mph55%30.12 "HgN/A
3:50 PM61 °FScattered clouds.16 mph55%30.12 "HgN/A
3:20 PM61 °FPartly sunny.15 mph55%30.15 "HgN/A
2:50 PM61 °FBroken clouds.14 mph59%30.15 "HgN/A
2:20 PM61 °FRefreshingly cool.15 mph55%30.15 "HgN/A
1:50 PM59 °FBroken clouds.16 mph63%30.15 "HgN/A
1:20 PM59 °FPartly sunny.16 mph63%30.15 "HgN/A
12:50 PM59 °FPassing clouds.15 mph63%30.18 "HgN/A
12:20 PM59 °FPartly sunny.14 mph63%30.18 "HgN/A
11:50 AM59 °FPartly sunny.15 mph63%30.18 "HgN/A
11:20 AM57 °FBroken clouds.12 mph63%30.18 "HgN/A
10:50 AM55 °FScattered clouds.12 mph67%30.18 "HgN/A
10:20 AM54 °FScattered clouds.13 mph72%30.21 "HgN/A
9:50 AM54 °FPartly sunny.12 mph67%30.21 "HgN/A
9:20 AM54 °FPartly sunny.12 mph67%30.21 "HgN/A
8:50 AM52 °FScattered clouds.10 mph72%30.21 "HgN/A
8:20 AM50 °FPartly sunny.7 mph76%30.21 "HgN/A
7:50 AM50 °FOvercast.7 mph82%30.21 "HgN/A
7:20 AM48 °FOvercast.6 mph87%30.21 "HgN/A
6:50 AM48 °FOvercast.6 mph87%30.21 "HgN/A
6:20 AM48 °FOvercast.6 mph87%30.21 "HgN/A
5:50 AM48 °FOvercast.6 mph87%30.21 "HgN/A
5:20 AM48 °FOvercast.7 mph87%30.21 "HgN/A
4:50 AM48 °FOvercast.6 mph87%30.21 "HgN/A
4:20 AM46 °FOvercast.6 mph93%30.21 "HgN/A
3:50 AM46 °FOvercast.5 mph93%30.21 "HgN/A
3:20 AM46 °FPassing clouds.6 mph87%30.21 "HgN/A
2:50 AM45 °FQuite cool.5 mph93%30.21 "HgN/A
2:20 AM46 °FPassing clouds.3 mph87%30.21 "HgN/A
1:50 AM46 °FPassing clouds.3 mph87%30.21 "HgN/A
1:20 AM46 °FPassing clouds.5 mph87%30.21 "HgN/A
Weather by CustomWeather, © 2015

See weather overviewHow to use our weather pages